{"data":{"norad_id":57246,"epoch":"2026-05-24T20:29:50.479872Z","epoch_age_seconds":97914,"freshness":"FRESH","line1":"1 57246U 23094AE  26144.85405648  .00000722  00000+0  35752-4 0  9995","line2":"2 57246  43.0033 309.2981 0001497 263.9219  96.1462 15.27581861158897","mean_motion":15.27581861,"eccentricity":0.0001497,"inclination_deg":43.0033,"raan_deg":309.2981,"arg_perigee_deg":263.9219,"mean_anomaly_deg":96.1462,"bstar":3.5752e-5,"rev_number":15889,"period_min":94.266633871741,"perigee_km":482.01640481744,"apogee_km":484.07064226619,"semimajor_km":6861.1805235418,"source":"CELESTRAK","updated_at":"2026-05-25T13:38:18.257933Z"}}